Location: Bullfrog
(37.5121°N, 110.7330°W)
Time: 10:40:48
(UTC-06:00)

Tiangong - Pass Details

Date: 29 September 2021
Orbit: 382 x 384 km, 41.5° (Epoch: 20 October)

Event Time Altitude Azimuth Distance (km) Brightness Sun altitude
Exits shadow 05:51:22 52° 313° (NW) 476 1.2 -17.7°
Maximum altitude 05:51:43 57° 345° (NNW) 452 1.3 -17.7°
Drops below altitude 10° 05:54:49 10° 66° (ENE) 1,393 5.1 -17.1°
Sets 05:56:55 0° 70° (ENE) 2,246 6.6 -16.7°
